TimeCST,TemperatureF,Dew PointF,Humidity,Sea Level PressureIn,VisibilityMPH,Wind Direction,Wind SpeedMPH,Gust SpeedMPH,PrecipitationIn,Events,Conditions,WindDirDegrees,DateUTC
12:52 AM,12.9,9.0,84,30.30,10.0,WSW,13.8,-,N/A,,Clear,250,2013-01-04 06:52:00
1:52 AM,12.9,8.1,81,30.28,10.0,WSW,10.4,-,N/A,,Clear,240,2013-01-04 07:52:00
2:52 AM,10.9,8.1,88,30.29,10.0,WSW,8.1,-,N/A,,Clear,240,2013-01-04 08:52:00
3:52 AM,10.9,8.1,88,30.28,10.0,WSW,9.2,-,N/A,,Clear,240,2013-01-04 09:52:00
4:52 AM,12.0,8.1,84,30.27,10.0,WSW,9.2,-,N/A,,Clear,240,2013-01-04 10:52:00
5:52 AM,12.0,8.1,84,30.26,10.0,SW,10.4,-,N/A,,Clear,230,2013-01-04 11:52:00
6:52 AM,10.9,8.1,88,30.27,10.0,SW,9.2,-,N/A,,Clear,230,2013-01-04 12:52:00
7:52 AM,12.9,10.0,88,30.25,8.0,SW,11.5,-,N/A,,Clear,230,2013-01-04 13:52:00
8:52 AM,16.0,12.0,84,30.27,8.0,WSW,11.5,21.9,N/A,,Clear,240,2013-01-04 14:52:00
9:52 AM,19.9,14.0,78,30.27,9.0,WSW,12.7,-,N/A,,Clear,240,2013-01-04 15:52:00
10:52 AM,26.1,18.0,71,30.25,10.0,WSW,15.0,21.9,N/A,,Clear,240,2013-01-04 16:52:00
11:52 AM,32.0,19.0,59,30.22,10.0,WSW,19.6,25.3,N/A,,Clear,240,2013-01-04 17:52:00
12:52 PM,35.1,19.9,54,30.19,10.0,WSW,21.9,31.1,N/A,,Clear,250,2013-01-04 18:52:00
1:52 PM,35.1,19.9,54,30.19,10.0,WSW,20.7,31.1,N/A,,Clear,250,2013-01-04 19:52:00
2:52 PM,34.0,21.0,59,30.19,10.0,WSW,19.6,26.5,N/A,,Clear,240,2013-01-04 20:52:00
3:52 PM,33.1,21.9,64,30.21,10.0,WSW,16.1,23.0,N/A,,Clear,240,2013-01-04 21:52:00
4:52 PM,30.9,21.0,67,30.22,10.0,WSW,15.0,20.7,N/A,,Clear,240,2013-01-04 22:52:00
5:52 PM,28.9,21.9,75,30.24,10.0,WSW,9.2,-,N/A,,Clear,240,2013-01-04 23:52:00
7:52 PM,26.1,21.0,81,30.26,9.0,WSW,8.1,-,N/A,,Clear,240,2013-01-05 01:52:00
8:52 PM,24.1,19.9,84,30.26,9.0,WSW,5.8,-,N/A,,Clear,240,2013-01-05 02:52:00
9:52 PM,23.0,19.9,88,30.26,9.0,SW,5.8,-,N/A,,Clear,220,2013-01-05 03:52:00
10:52 PM,24.1,19.9,84,30.27,9.0,WSW,6.9,-,N/A,,Clear,240,2013-01-05 04:52:00
11:52 PM,21.9,18.0,85,30.24,9.0,SSW,5.8,-,N/A,,Clear,210,2013-01-05 05:52:00